This is the latest recevied weather packets stored in our database for station/object W5DNT. If no packets are shown the sender has not sent any weather packets the latest 10 day(s).
| Time | Temp. | Humidity | Pressure | Rain* | Wind** | Luminosity | Snow |
|---|---|---|---|---|---|---|---|
| 1788296418 | 37.22° C | 39% | 1012.3 hPa | 0 mm | - | - | - |
| 1788295518 | 36.67° C | 38% | 1012.5 hPa | 0 mm | - | - | - |
| 1788294631 | 36.67° C | 39% | 1012.5 hPa | 0 mm | - | - | - |
| 1788293711 | 36.67° C | 39% | 1012.6 hPa | 0 mm | - | - | - |
| 1788292812 | 36.67° C | 40% | 1012.8 hPa | 0 mm | - | - | - |
| 1788291907 | 36.67° C | 38% | 1012.9 hPa | 0 mm | - | - | - |
| 1788291062 | 36.67° C | 40% | 1013 hPa | 0 mm | - | - | - |
| 1788290157 | 36.11° C | 42% | 1013.2 hPa | 0 mm | - | - | - |
| 1788289255 | 35.56° C | 43% | 1013.4 hPa | 0 mm | - | - | - |
| 1788288355 | 35° C | 42% | 1013.9 hPa | 0 mm | - | - | - |
| 1788287499 | 35.56° C | 43% | 1014.2 hPa | 0 mm | - | - | - |
| 1788286551 | 35° C | 44% | 1014.4 hPa | 0 mm | - | - | - |
| 1788285646 | 35° C | 45% | 1014.7 hPa | 0 mm | - | - | - |
| 1788284745 | 34.44° C | 47% | 1014.8 hPa | 0 mm | - | - | - |
| 1788283851 | 34.44° C | 48% | 1015.3 hPa | 0 mm | - | - | - |
| 1788282949 | 33.89° C | 48% | 1015.3 hPa | 0 mm | - | - | - |
| 1788282047 | 33.33° C | 49% | 1015.6 hPa | 0 mm | - | - | - |
| 1788281131 | 33.33° C | 53% | 1015.6 hPa | 0 mm | - | - | - |
| 1788280231 | 32.22° C | 54% | 1015.7 hPa | 0 mm | - | - | - |
| 1788279329 | 32.22° C | 52% | 1016 hPa | 0 mm | - | - | - |
| 1788278422 | 31.67° C | 55% | 1015.9 hPa | 0 mm | - | - | - |
| 1788277519 | 31.11° C | 56% | 1015.8 hPa | 0 mm | - | - | - |
| 1788276615 | 30.56° C | 58% | 1015.7 hPa | 0 mm | - | - | - |
| 1788275711 | 30° C | 62% | 1015.9 hPa | 0 mm | - | - | - |
| 1788274809 | 28.89° C | 64% | 1016 hPa | 0 mm | - | - | - |
* Rain latest hour (hover to see other rain measurements)
** Current wind speed in m/s (hover to see current wind gust speed)